Weather History for Glendive, MT

Change the Weather History Date:

Thursday, January 24, 2013

  Actual Average Record
Temperature  
Mean Temperature 24 °F -  
Max Temperature 39 °F 24 °F 53 °F (2005)
Min Temperature 10 °F 6 °F -11 °F (2009)
Degree Days  
Heating Degree Days 40    
Moisture  
Dew Point 15 °F    
Average Humidity 73    
Maximum Humidity 80    
Minimum Humidity 61    
Precipitation  
Precipitation 0.00 in - - ()
Sea Level Pressure  
Sea Level Pressure 29.94 in    
Wind  
Wind Speed 13 mph (SSW)    
Max Wind Speed 23 mph    
Max Gust Speed 31 mph    
Visibility 10 miles    
Events      
Averages and records for this station are not official NWS values.
T = Trace of Precipitation, MM = Missing Value Source: NWS Daily Summary

Daily Weather History Graph

Daily Weather History Graph

Search for Another Location

Airport:

Trip Planner

Search our weather history database for the weather conditions in past years. The results will help you decide how hot, cold, wet, or windy it might be!

Date:

Astronomy

Jan. 24, 2013 Rise Set
Actual Time 7:33 AM MST 4:50 PM MST
Civil Twilight 6:59 AM MST 5:23 PM MST
Nautical Twilight 6:22 AM MST 6:00 PM MST
Astronomical Twilight 5:46 AM MST 6:36 PM MST
Moon 2:52 PM MST (1/24) 5:35 AM MST (1/24)
Length of Visible Light 10h 23m
Length of Day
9h 16m
Waxing Gibbous, 95% of the Moon is Illuminated
Jan 24
Waxing Gibbous
Jan 26
Full
Feb 3
Last Quarter
Feb 10
New
Feb 17
First Quarter

Hourly Weather History & Observations

Time (MST) Temp. Windchill Dew Point Humidity Pressure Visibility Wind Dir Wind Speed Gust Speed Precip Events Conditions
12:15 AM 10.4 °F -3.3 °F 3.2 °F 73% 30.07 in 10.0 mi SE 10.4 mph - N/A   Clear
12:35 AM 10.4 °F -3.3 °F 3.2 °F 73% 30.04 in 10.0 mi ESE 10.4 mph - N/A   Clear
1:15 AM 10.4 °F -3.3 °F 3.2 °F 73% 30.02 in 10.0 mi ESE 10.4 mph - N/A   Clear
1:35 AM 10.4 °F -2.4 °F 3.2 °F 73% 30.01 in 10.0 mi ESE 9.2 mph - N/A   Clear
1:55 AM 12.2 °F -1.8 °F 6.8 °F 79% 30.00 in 10.0 mi SE 11.5 mph - N/A   Clear
2:15 AM 14.0 °F -2.0 °F 6.8 °F 73% 30.00 in 10.0 mi SSE 16.1 mph 19.6 mph N/A   Scattered Clouds
2:35 AM 14.0 °F -3.0 °F 6.8 °F 73% 30.00 in 10.0 mi SSE 18.4 mph 23.0 mph N/A   Mostly Cloudy
2:55 AM 14.0 °F -2.5 °F 6.8 °F 73% 29.99 in 10.0 mi SSE 17.3 mph 23.0 mph N/A   Overcast
3:35 AM 14.0 °F -0.2 °F 6.8 °F 73% 29.98 in 10.0 mi SSE 12.7 mph 17.3 mph N/A   Overcast
3:55 AM 14.0 °F 0.5 °F 6.8 °F 73% 29.96 in 10.0 mi SE 11.5 mph 18.4 mph N/A   Overcast
4:15 AM 14.0 °F -0.8 °F 6.8 °F 73% 29.95 in 10.0 mi SE 13.8 mph 17.3 mph N/A   Scattered Clouds
4:35 AM 14.0 °F -2.0 °F 6.8 °F 73% 29.93 in 10.0 mi SSE 16.1 mph - N/A   Scattered Clouds
4:55 AM 14.0 °F -2.0 °F 6.8 °F 73% 29.93 in 10.0 mi SSE 16.1 mph - N/A   Scattered Clouds
5:15 AM 14.0 °F -1.4 °F 6.8 °F 73% 29.92 in 10.0 mi SSE 15.0 mph - N/A   Partly Cloudy
5:35 AM 14.0 °F -0.8 °F 8.6 °F 79% 29.90 in 10.0 mi SSE 13.8 mph - N/A   Clear
5:55 AM 14.0 °F -1.4 °F 8.6 °F 79% 29.90 in 10.0 mi SSE 15.0 mph - N/A   Clear
6:15 AM 14.0 °F 0.5 °F 8.6 °F 79% 29.91 in 10.0 mi SSE 11.5 mph - N/A   Partly Cloudy
6:35 AM 15.8 °F 1.4 °F 8.6 °F 73% 29.89 in 10.0 mi SSE 13.8 mph - N/A   Clear
6:55 AM 15.8 °F 1.4 °F 6.8 °F 68% 29.88 in 10.0 mi South 13.8 mph - N/A   Clear
7:16 AM 15.8 °F 1.4 °F 8.6 °F 73% 29.87 in 10.0 mi South 13.8 mph - N/A   Mostly Cloudy
7:35 AM 15.8 °F 4.2 °F 8.6 °F 73% 29.87 in 10.0 mi South 9.2 mph - N/A   Scattered Clouds
7:55 AM 15.8 °F 2.7 °F 8.6 °F 73% 29.88 in 10.0 mi South 11.5 mph - N/A   Clear
8:15 AM 15.8 °F 4.2 °F 10.4 °F 79% 29.87 in 10.0 mi South 9.2 mph - N/A   Clear
8:35 AM 15.8 °F 2.7 °F 10.4 °F 79% 29.87 in 10.0 mi South 11.5 mph - N/A   Clear
8:55 AM 15.8 °F 2.7 °F 10.4 °F 79% 29.86 in 10.0 mi South 11.5 mph - N/A   Clear
9:15 AM 17.6 °F 3.7 °F 10.4 °F 73% 29.86 in 10.0 mi South 13.8 mph - N/A   Clear
9:35 AM 17.6 °F 8.2 °F 12.2 °F 79% 29.87 in 10.0 mi South 6.9 mph - N/A   Partly Cloudy
9:55 AM 19.4 °F 8.6 °F 12.2 °F 74% 29.88 in 10.0 mi SSW 9.2 mph - N/A   Partly Cloudy
10:15 AM 21.2 °F 10.1 °F 12.2 °F 68% 29.89 in 10.0 mi South 10.4 mph - N/A   Clear
10:35 AM 23.0 °F 13.1 °F 15.8 °F 74% 29.89 in 10.0 mi South 9.2 mph - N/A   Clear
10:55 AM 23.0 °F 12.4 °F 15.8 °F 74% 29.88 in 10.0 mi South 10.4 mph - N/A   Clear
11:15 AM 24.8 °F 14.6 °F 15.8 °F 69% 29.87 in 10.0 mi South 10.4 mph - N/A   Clear
11:35 AM 26.6 °F 15.2 °F 17.6 °F 69% 29.87 in 10.0 mi South 13.8 mph - N/A   Mostly Cloudy
11:56 AM 26.6 °F 15.2 °F 17.6 °F 69% 29.87 in 10.0 mi South 13.8 mph - N/A   Mostly Cloudy
12:15 PM 28.4 °F 18.0 °F 19.4 °F 69% 29.86 in 10.0 mi SSW 12.7 mph - N/A   Partly Cloudy
12:35 PM 30.2 °F 21.9 °F 21.2 °F 69% 29.85 in 10.0 mi South 9.2 mph - N/A   Clear
12:55 PM 33.8 °F 26.4 °F 23.0 °F 65% 29.85 in 10.0 mi South 9.2 mph - N/A   Clear
1:15 PM 35.6 °F 28.0 °F 24.8 °F 65% 29.85 in 10.0 mi SSW 10.4 mph - N/A   Clear
1:35 PM 37.4 °F 29.8 °F 26.6 °F 65% 29.85 in 10.0 mi SW 11.5 mph - N/A   Clear
2:15 PM 39.2 °F 28.7 °F 26.6 °F 61% 29.86 in 10.0 mi WNW 23.0 mph 29.9 mph N/A   Clear
2:35 PM 39.2 °F 28.7 °F 26.6 °F 61% 29.87 in 10.0 mi WNW 23.0 mph 31.1 mph N/A   Clear
2:55 PM 37.4 °F 26.4 °F 26.6 °F 65% 29.87 in 10.0 mi WNW 23.0 mph 29.9 mph N/A   Clear
3:55 PM 35.6 °F 25.5 °F 26.6 °F 70% 29.90 in 10.0 mi WNW 17.3 mph - N/A   Mostly Cloudy
4:35 PM 32.0 °F 21.6 °F 24.8 °F 75% 29.93 in 10.0 mi WNW 15.0 mph - N/A   Clear
4:55 PM 32.0 °F 20.5 °F 24.8 °F 75% 29.94 in 10.0 mi WNW 18.4 mph 27.6 mph N/A   Clear
5:15 PM 30.2 °F 17.8 °F 24.8 °F 80% 29.95 in 10.0 mi WNW 19.6 mph 26.5 mph N/A   Clear
5:35 PM 28.4 °F 17.0 °F 23.0 °F 80% 29.96 in 10.0 mi WNW 15.0 mph - N/A   Clear
5:55 PM 28.4 °F 17.5 °F 21.2 °F 74% 29.96 in 10.0 mi WNW 13.8 mph - N/A   Clear
6:15 PM 28.4 °F 17.0 °F 23.0 °F 80% 29.97 in 10.0 mi WNW 15.0 mph - N/A   Clear
6:55 PM 26.6 °F 15.7 °F 21.2 °F 80% 29.98 in 10.0 mi West 12.7 mph - N/A   Clear
7:15 PM 26.6 °F 14.7 °F 21.2 °F 80% 29.98 in 10.0 mi West 15.0 mph - N/A   Clear
7:35 PM 28.4 °F 17.0 °F 23.0 °F 80% 29.98 in 10.0 mi West 15.0 mph - N/A   Clear
8:15 PM 28.4 °F 16.6 °F 21.2 °F 74% 29.99 in 10.0 mi West 16.1 mph - N/A   Clear
8:35 PM 28.4 °F 18.0 °F 21.2 °F 74% 29.99 in 10.0 mi WNW 12.7 mph - N/A   Clear
8:55 PM 28.4 °F 15.1 °F 21.2 °F 74% 29.99 in 10.0 mi WNW 20.7 mph 26.5 mph N/A   Clear
9:15 PM 28.4 °F 16.6 °F 21.2 °F 74% 30.00 in 10.0 mi WNW 16.1 mph 23.0 mph N/A   Clear
9:35 PM 28.4 °F 17.5 °F 19.4 °F 69% 30.02 in 10.0 mi West 13.8 mph - N/A   Clear
9:55 PM 26.6 °F 14.7 °F 19.4 °F 74% 30.03 in 10.0 mi WNW 15.0 mph - N/A   Clear
10:15 PM 26.6 °F 14.7 °F 17.6 °F 69% 30.03 in 10.0 mi West 15.0 mph - N/A   Clear
10:35 PM 24.8 °F 12.9 °F 17.6 °F 74% 30.04 in 10.0 mi West 13.8 mph - N/A   Clear
10:55 PM 24.8 °F 13.4 °F 19.4 °F 80% 30.04 in 10.0 mi WNW 12.7 mph - N/A   Clear
11:15 PM 24.8 °F 14.0 °F 17.6 °F 74% 30.04 in 10.0 mi WNW 11.5 mph - N/A   Clear
11:35 PM 23.0 °F 13.1 °F 15.8 °F 74% 30.04 in 10.0 mi West 9.2 mph - N/A   Clear
11:55 PM 23.0 °F 11.7 °F 17.6 °F 80% 30.04 in 10.0 mi WNW 11.5 mph - N/A   Clear